Photometre #718[NE_1.6] Antikythera_NOA AOT

File : 20200928_718.hum

28/09/2020,05:04:26,TEMP=22.3,BA=5.52,STAT.A=1.0,ExtBa=11.48
28/09/2020,05:07:37,TEMP=22.6,BA=5.52,STAT.A=1.0,ExtBa=11.47
28/09/2020,05:11:20,TEMP=22.8,BA=5.48,STAT.A=1.0,ExtBa=11.48
28/09/2020,05:15:21,TEMP=23.0,BA=5.48,STAT.D=1.0,ExtBa=11.43
28/09/2020,05:17:37,TEMP=23.3,BA=5.48,STAT.A=1.0,ExtBa=11.36
28/09/2020,05:21:05,TEMP=23.2,BA=5.48,STAT.A=1.0,ExtBa=11.37
28/09/2020,05:27:39,TEMP=23.2,BA=5.48,STAT.A=1.0,ExtBa=11.47
28/09/2020,05:30:21,TEMP=23.4,BA=5.48,STAT.D=1.0,ExtBa=11.45
28/09/2020,05:33:21,TEMP=23.5,BA=5.48,STAT.D=1.0,ExtBa=11.36
28/09/2020,05:35:56,TEMP=23.7,BA=5.48,STAT.B=1.0,ExtBa=11.33
28/09/2020,05:39:52,TEMP=23.6,BA=5.48,STAT.A=1.0,ExtBa=11.32
28/09/2020,05:44:20,TEMP=23.6,BA=5.32,STAT.A=1.0,ExtBa=11.31
28/09/2020,05:49:20,TEMP=23.5,BA=5.32,STAT.A=1.0,ExtBa=11.31
28/09/2020,05:55:00,TEMP=23.5,BA=5.32,STAT.A=1.0,ExtBa=11.31
28/09/2020,06:01:31,TEMP=23.6,BA=5.44,STAT.C=1.0,ExtBa=11.31
28/09/2020,06:09:04,TEMP=23.8,BA=5.44,STAT.A=1.0,ExtBa=11.31
28/09/2020,06:17:57,TEMP=24.0,BA=5.36,STAT.A=1.0,ExtBa=11.31
28/09/2020,06:28:35,TEMP=24.2,BA=5.44,STAT.A=1.0,ExtBa=11.35
28/09/2020,06:39:22,TEMP=24.5,BA=5.40,STAT.D=1.0,ExtBa=11.38
28/09/2020,06:41:34,TEMP=24.9,BA=5.40,STAT.A=1.0,ExtBa=11.34
28/09/2020,06:45:22,TEMP=25.0,BA=5.40,STAT.D=1.0,ExtBa=11.33
28/09/2020,06:57:22,TEMP=25.6,BA=5.52,STAT.D=1.5,ExtBa=11.42
28/09/2020,06:59:18,TEMP=26.0,BA=5.52,STAT.B=1.0,ExtBa=11.39
28/09/2020,07:02:44,TEMP=26.1,BA=5.40,STAT.D=1.0,ExtBa=11.40
28/09/2020,07:15:22,TEMP=26.9,BA=5.56,STAT.D=1.5,ExtBa=11.55
28/09/2020,07:17:46,TEMP=27.2,BA=5.56,STAT.F,ExtBa=11.53
28/09/2020,07:32:44,TEMP=26.9,BA=5.52,STAT.D=1.5,ExtBa=11.38
28/09/2020,07:45:22,TEMP=26.7,BA=5.52,STAT.D=1.5,ExtBa=11.46
28/09/2020,07:47:44,TEMP=26.9,BA=5.52,STAT.D=1.5,ExtBa=11.42
28/09/2020,08:00:22,TEMP=26.7,BA=5.56,STAT.D=1.5,ExtBa=11.50
28/09/2020,08:02:44,TEMP=27.0,BA=5.56,STAT.D=1.5,ExtBa=11.47
28/09/2020,08:06:22,TEMP=27.1,BA=5.56,STAT.D=1.5,ExtBa=11.50
28/09/2020,08:09:22,TEMP=27.2,BA=5.56,STAT.D=1.5,ExtBa=11.55
28/09/2020,08:12:22,TEMP=27.5,BA=5.44,STAT.D=1.5,ExtBa=11.59
28/09/2020,08:15:22,TEMP=27.7,BA=5.44,STAT.D=1.5,ExtBa=11.52
28/09/2020,08:17:46,TEMP=27.9,BA=5.44,STAT.F,ExtBa=11.50
28/09/2020,08:30:23,TEMP=27.4,BA=5.56,STAT.D=1.5,ExtBa=11.53
28/09/2020,08:32:45,TEMP=27.6,BA=5.56,STAT.D=1.5,ExtBa=11.51
28/09/2020,08:45:23,TEMP=27.4,BA=5.52,STAT.D=1.5,ExtBa=11.54
28/09/2020,08:47:45,TEMP=27.6,BA=5.52,STAT.D=1.5,ExtBa=11.52
28/09/2020,09:00:23,TEMP=27.3,BA=5.52,STAT.D=1.5,ExtBa=11.54
28/09/2020,09:02:45,TEMP=27.6,BA=5.52,STAT.D=1.5,ExtBa=11.52
28/09/2020,09:15:23,TEMP=27.4,BA=5.52,STAT.D=1.5,ExtBa=11.57
28/09/2020,09:17:46,TEMP=27.7,BA=5.52,STAT.F,ExtBa=11.56
28/09/2020,09:32:45,TEMP=28.1,BA=5.52,STAT.D=1.5,ExtBa=11.47
28/09/2020,09:45:23,TEMP=27.9,BA=5.52,STAT.D=1.5,ExtBa=11.51
28/09/2020,09:47:45,TEMP=28.1,BA=5.52,STAT.D=1.5,ExtBa=11.49
28/09/2020,10:00:23,TEMP=27.3,BA=5.52,STAT.D=1.5,ExtBa=11.49
28/09/2020,10:02:45,TEMP=27.5,BA=5.52,STAT.D=1.5,ExtBa=11.45
28/09/2020,10:15:23,TEMP=27.3,BA=5.52,STAT.D=1.5,ExtBa=11.46
28/09/2020,10:17:47,TEMP=27.6,BA=5.52,STAT.F,ExtBa=11.46
28/09/2020,10:30:23,TEMP=28.4,BA=5.52,STAT.D=1.5,ExtBa=11.51
28/09/2020,10:32:45,TEMP=28.6,BA=5.52,STAT.D=1.5,ExtBa=11.50
28/09/2020,10:45:23,TEMP=29.0,BA=5.52,STAT.D=1.5,ExtBa=11.51
28/09/2020,10:47:45,TEMP=29.3,BA=5.52,STAT.D=1.5,ExtBa=11.47
28/09/2020,11:00:23,TEMP=28.6,BA=5.52,STAT.D=1.5,ExtBa=11.46
28/09/2020,11:02:45,TEMP=28.6,BA=5.52,STAT.D=1.5,ExtBa=11.43
28/09/2020,11:15:23,TEMP=27.6,BA=5.52,STAT.D=1.5,ExtBa=11.43
28/09/2020,11:17:46,TEMP=27.9,BA=5.52,STAT.F,ExtBa=11.41
28/09/2020,11:30:23,TEMP=28.6,BA=5.52,STAT.D=1.5,ExtBa=11.42
28/09/2020,11:32:45,TEMP=28.8,BA=5.52,STAT.D=1.5,ExtBa=11.41
28/09/2020,11:45:23,TEMP=28.2,BA=5.52,STAT.D=1.5,ExtBa=11.47
28/09/2020,11:47:45,TEMP=28.5,BA=5.52,STAT.D=1.5,ExtBa=11.44
28/09/2020,12:00:23,TEMP=28.6,BA=5.52,STAT.D=1.5,ExtBa=11.50
28/09/2020,12:02:45,TEMP=29.0,BA=5.52,STAT.D=1.5,ExtBa=11.46
28/09/2020,12:06:23,TEMP=29.1,BA=5.52,STAT.D=1.5,ExtBa=11.44
28/09/2020,12:17:46,TEMP=28.6,BA=5.52,STAT.F,ExtBa=11.50
28/09/2020,12:30:22,TEMP=28.9,BA=5.52,STAT.D=1.5,ExtBa=11.50
28/09/2020,12:32:44,TEMP=29.3,BA=5.52,STAT.D=1.5,ExtBa=11.48
28/09/2020,12:36:22,TEMP=29.4,BA=5.52,STAT.D=1.5,ExtBa=11.45
28/09/2020,12:47:44,TEMP=28.8,BA=5.52,STAT.D=1.5,ExtBa=11.47
28/09/2020,13:00:22,TEMP=28.8,BA=5.52,STAT.D=1.5,ExtBa=11.46
28/09/2020,13:02:44,TEMP=28.9,BA=5.52,STAT.D=1.5,ExtBa=11.43
28/09/2020,13:15:22,TEMP=28.4,BA=5.52,STAT.D=1.5,ExtBa=11.46
28/09/2020,13:17:46,TEMP=28.7,BA=5.52,STAT.F,ExtBa=11.42
28/09/2020,13:32:44,TEMP=28.6,BA=5.40,STAT.D=1.5,ExtBa=11.31
28/09/2020,13:37:38,TEMP=28.3,BA=5.40,STAT.B=1.5,ExtBa=11.35
28/09/2020,13:48:22,TEMP=27.9,BA=5.40,STAT.D=1.5,ExtBa=11.31
28/09/2020,13:53:56,TEMP=27.8,BA=5.44,STAT.A=1.5,ExtBa=11.31
28/09/2020,14:06:22,TEMP=27.2,BA=5.48,STAT.D=1.5,ExtBa=11.33
28/09/2020,14:08:19,TEMP=27.4,BA=5.48,STAT.A=1.5,ExtBa=11.29
28/09/2020,14:17:33,TEMP=27.0,BA=5.40,STAT.A=1.5,ExtBa=11.32
28/09/2020,14:26:26,TEMP=26.9,BA=5.48,STAT.A=1.5,ExtBa=11.31
28/09/2020,14:30:21,TEMP=27.1,BA=5.48,STAT.D=1.5,ExtBa=11.30
28/09/2020,14:33:59,TEMP=27.0,BA=5.48,STAT.C=1.5,ExtBa=11.30
28/09/2020,14:49:03,TEMP=26.4,BA=5.40,STAT.A=1.5,ExtBa=11.26
28/09/2020,14:51:07,TEMP=26.5,BA=5.36,STAT.A=1.5,ExtBa=11.26
28/09/2020,14:53:11,TEMP=26.4,BA=5.36,STAT.A=1.0,ExtBa=11.26
28/09/2020,14:55:36,TEMP=26.2,BA=5.36,STAT.A=1.5,ExtBa=11.26
28/09/2020,14:59:34,TEMP=25.8,BA=5.36,STAT.B=1.5,ExtBa=11.27
28/09/2020,15:07:51,TEMP=25.4,BA=5.36,STAT.A=1.5,ExtBa=11.28
28/09/2020,15:14:25,TEMP=25.2,BA=5.40,STAT.A=1.5,ExtBa=11.27
28/09/2020,15:19:44,TEMP=25.1,BA=5.40,STAT.A=1.5,ExtBa=11.27
28/09/2020,15:24:10,TEMP=25.1,BA=5.36,STAT.A=1.0,ExtBa=11.27
28/09/2020,15:27:53,TEMP=25.0,BA=5.36,STAT.A=1.0,ExtBa=11.27
28/09/2020,15:31:04,TEMP=25.0,BA=5.40,STAT.A=1.0,ExtBa=11.26